Location: Pitton
(51.0667°N, 1.7000°W)
Time: 05:12:08
(UTC+00:00)

Cosmos 2237 Rocket - Pass Details

Date: 17 September 2019
Orbit: 833 x 852 km, 71.0° (Epoch: 23 October)

Event Time Altitude Azimuth Distance (km) Brightness Sun altitude
Rises 19:54:53 0° 329° (NNW) 3,425 6.3 -15.7°
Reaches altitude 10° 19:57:20 10° 330° (NNW) 2,487 5.5 -16.0°
Maximum altitude 20:03:04 88° 243° (WSW) 860 2.2 -16.8°
Enters shadow 20:06:59 21° 154° (SSE) 1,814 3.5 -17.4°
